Weather History for KSXT - October, 2012

Change the Weather History Date:

Wednesday, October 17, 2012

  Actual Average Record
Temperature  
Mean Temperature 48 °F -  
Max Temperature 57 °F 56 °F 77 °F (2002)
Min Temperature 39 °F 41 °F 32 °F (2007)
Degree Days  
Heating Degree Days 17    
Moisture  
Dew Point 35 °F    
Average Humidity 60    
Maximum Humidity 83    
Minimum Humidity 37    
Precipitation  
Precipitation 0.00 in - - ()
Sea Level Pressure  
Sea Level Pressure 30.16 in    
Wind  
Wind Speed 6 mph (East)    
Max Wind Speed 8 mph    
Max Gust Speed -    
Visibility 10 miles    
Events      
Averages and records for this station are not official NWS values.
T = Trace of Precipitation, MM = Missing Value Source: NWS Daily Summary

Daily Weather History Graph

Daily Weather History Graph

Search for Another Location

Airport or City:

Trip Planner

Search our weather history database for the weather conditions in past years. The results will help you decide how hot, cold, wet, or windy it might be!

Date:

Astronomy

Oct. 17, 2012 Rise Set
Actual Time 7:29 AM PDT 6:27 PM PDT
Civil Twilight 7:01 AM PDT 6:55 PM PDT
Nautical Twilight 6:28 AM PDT 7:28 PM PDT
Astronomical Twilight 5:55 AM PDT 8:00 PM PDT
Moon 10:14 AM PDT (10/17) 8:03 PM PDT (10/17)
Length of Visible Light 11h 54m
Length of Day
10h 57m
Waxing Crescent, 8% of the Moon is Illuminated
Oct 17
Waxing Crescent
Oct 21
First Quarter
Oct 29
Full
Nov 6
Last Quarter
Nov 13
New

Hourly Weather History & Observations

Time (PDT) Temp. Windchill Dew Point Humidity Pressure Visibility Wind Dir Wind Speed Gust Speed Precip Events Conditions
12:56 AM 42.1 °F 38.4 °F 35.1 °F 76% 30.21 in 10.0 mi NE 5.8 mph - N/A   Clear
1:56 AM 42.1 °F 37.1 °F 35.1 °F 76% 30.22 in 10.0 mi ENE 8.1 mph - N/A   Clear
2:56 AM 42.1 °F 37.1 °F 35.1 °F 76% 30.21 in 10.0 mi ENE 8.1 mph - N/A   Clear
3:56 AM 41.0 °F 39.0 °F 35.1 °F 79% 30.19 in 10.0 mi ENE 3.5 mph - N/A   Clear
4:56 AM 39.9 °F 35.1 °F 35.1 °F 83% 30.19 in 10.0 mi East 6.9 mph - N/A   Clear
5:56 AM 41.0 °F 39.0 °F 34.0 °F 76% 30.19 in 10.0 mi East 3.5 mph - N/A   Clear
6:56 AM 41.0 °F 38.0 °F 34.0 °F 76% 30.19 in 10.0 mi SE 4.6 mph - N/A   Clear
7:56 AM 42.1 °F 37.7 °F 33.1 °F 70% 30.19 in 10.0 mi ESE 6.9 mph - N/A   Clear
8:56 AM 46.0 °F 43.1 °F 35.1 °F 66% 30.18 in 10.0 mi East 5.8 mph - N/A   Clear
9:56 AM 48.0 °F - 35.1 °F 61% 30.19 in 10.0 mi ESE 5.8 mph - N/A   Clear
10:56 AM 50.0 °F - 37.0 °F 61% 30.19 in 10.0 mi Variable 3.5 mph - N/A   Clear
11:56 AM 52.0 °F - 37.0 °F 57% 30.17 in 10.0 mi SE 8.1 mph - N/A   Clear
12:56 PM 55.0 °F - 39.0 °F 55% 30.16 in 10.0 mi ESE 6.9 mph - 0.00 in   Clear
1:56 PM 55.9 °F - 36.0 °F 47% 30.14 in 10.0 mi ESE 5.8 mph - N/A   Clear
2:56 PM 57.0 °F - 39.0 °F 51% 30.12 in 10.0 mi East 3.5 mph - N/A   Clear
3:56 PM 57.0 °F - 37.9 °F 49% 30.13 in 10.0 mi ENE 4.6 mph - 0.00 in   Clear
4:56 PM 57.0 °F - 30.9 °F 37% 30.13 in 10.0 mi NNE 3.5 mph - N/A   Clear
5:56 PM 53.1 °F - 39.9 °F 61% 30.14 in 10.0 mi North 8.1 mph - N/A   Clear
6:56 PM 55.9 °F - 34.0 °F 44% 30.13 in 10.0 mi NNE 8.1 mph - N/A   Clear
7:56 PM 54.0 °F - 36.0 °F 51% 30.14 in 10.0 mi NNE 6.9 mph - N/A   Clear
8:56 PM 54.0 °F - 39.9 °F 59% 30.13 in 10.0 mi ESE 5.8 mph - N/A   Clear
9:56 PM 54.0 °F - 34.0 °F 47% 30.13 in 10.0 mi East 5.8 mph - N/A   Clear
10:56 PM 55.0 °F - 30.9 °F 40% 30.12 in 10.0 mi East 3.5 mph - N/A   Clear
11:56 PM 55.9 °F - 30.9 °F 39% 30.12 in 10.0 mi East 4.6 mph - N/A   Clear